Location: Poughquag
(41.6090°N, 73.6820°W)
Time: 05:20:49
(UTC-04:00)

A-11 Canister half - Pass Details

Date: 30 May 2020
Orbit: 1514 x 1686 km, 47.2° (Epoch: 06 July)

Event Time Altitude Azimuth Distance (km) Brightness Sun altitude
Rises 20:32:11 0° 297° (WNW) 4,667 14.4 -2.5°
Reaches altitude 10° 20:35:18 10° 293° (WNW) 3,677 12.9 -3.0°
Maximum altitude 20:44:09 54° 220° (SW) 1,795 9.5 -4.4°
Drops below altitude 10° 20:53:05 10° 146° (SE) 3,703 10.4 -5.7°
Enters shadow 20:54:40 - 143° (SE) 4,200 10.7 -6.0°
